CW4362 Weather Reports


time (UTC)temp
C
wind
direction
speed
KPH
gust
KPH
rain 1hr
cm
rain 24hr
cm
rain mn
cm
humidity
%
barometer
mb
20260509185517 18 113 1.6 4.8 0.00 0.15 0.15 55 1006.8
20260509184517 18 90 3.2 9.7 0.00 0.15 0.15 58 1006.8
20260509183517 17 0.0 4.8 0.00 0.15 0.15 63 1006.8
20260509182517 17 90 1.6 6.4 0.00 0.15 0.15 65 1007.3
20260509181517 16 0.0 1.6 0.00 0.15 0.15 66 1007.3
20260509180517 16 68 1.6 9.7 0.00 0.15 0.15 68 1007.3
20260509175537 16 68 3.2 8.0 0.00 0.15 0.15 70 1007.6
20260509174536 16 45 1.6 6.4 0.00 0.15 0.15 72 1007.7
20260509173517 15 0.0 4.8 0.00 0.15 0.15 76 1007.9
20260509172517 15 0.0 4.8 0.00 0.15 0.15 76 1008.1
20260509171517 15 0.0 4.8 0.00 0.15 0.15 78 1008.1
20260509170517 15 0.0 1.6 0.00 0.15 0.15 80 1008.3
20260509165537 14 0.0 0.0 0.00 0.15 0.15 80 1008.4
20260509164516 14 0.0 0.0 0.00 0.15 0.15 81 1008.4
20260509163516 14 0.0 0.0 0.00 0.15 0.15 83 1008.4
20260509162517 14 0.0 0.0 0.00 0.15 0.15 86 1008.4
20260509161517 14 0.0 3.2 0.00 0.15 0.15 83 1008.4
20260509160516 14 0.0 0.0 0.00 0.15 0.15 82 1008.3
20260509155516 14 0.0 3.2 0.00 0.15 0.15 82 1008.4
20260509154536 14 0.0 4.8 0.00 0.15 0.15 86 1008.4
20260509153516 14 0.0 1.6 0.00 0.15 0.15 86 1008.2
20260509152516 13 0.0 1.6 0.00 0.15 0.15 88 1008.3
20260509151517 13 0.0 4.8 0.03 0.15 0.15 89 1008.3
20260509150536 12 0.0 0.0 0.03 0.15 0.15 94 1008.4
20260509145536 12 0.0 4.8 0.05 0.15 0.15 98 1008.4
20260509144516 12 0.0 0.0 0.08 0.15 0.15 98 1008.3
20260509143536 12 0.0 6.4 0.10 0.15 0.15 100 1008.4
20260509142536 12 0.0 0.0 0.10 0.15 0.15 100 1008.4
20260509141536 11 0.0 1.6 0.10 0.13 0.13 100 1008.4
20260509140536 11 0.0 3.2 0.10 0.13 0.13 100 1008.4
20260509135516 12 0.0 0.0 0.10 0.10 0.10 100 1008.4
20260509134536 12 0.0 0.0 0.08 0.08 0.08 100 1008.4
20260509133516 12 0.0 0.0 0.05 0.05 0.05 100 1008.4
20260509132516 11 0.0 0.0 0.05 0.05 0.05 97 1008.3
20260509131536 12 0.0 1.6 0.03 0.03 0.03 94 1008.4
20260509130516 12 0.0 0.0 0.03 0.03 0.03 92 1008.4
20260509125516 12 0.0 0.0 0.00 0.00 0.00 90 1008.4
20260509124516 12 0.0 0.0 0.00 0.00 0.00 88 1008.4
20260509123516 12 0.0 0.0 0.00 0.00 0.00 86 1008.4
20260509122516 12 0.0 0.0 0.00 0.00 0.00 86 1008.7
20260509121516 12 0.0 0.0 0.00 0.00 0.00 85 1008.7
20260509120516 12 0.0 0.0 0.00 0.00 0.00 82 1008.8
20260509115516 11 0.0 0.0 0.00 0.00 0.00 83 1008.9
20260509114516 11 0.0 0.0 0.00 0.00 0.00 83 1008.9
20260509113516 11 0.0 0.0 0.00 0.00 0.00 86 1009.0
20260509112536 11 0.0 0.0 0.00 0.00 0.00 84 1008.7
20260509111516 11 293 1.6 4.8 0.00 0.00 0.00 87 1008.7
20260509110516 11 0.0 1.6 0.00 0.00 0.00 84 1008.1
20260509105516 11 0.0 0.0 0.00 0.00 0.00 81 1008.2
20260509104516 11 0.0 0.0 0.00 0.00 0.00 78 1008.2
20260509103516 11 0.0 0.0 0.00 0.00 0.00 80 1007.8
20260509102515 11 0.0 0.0 0.00 0.00 0.00 77 1008.0
20260509101515 11 0.0 0.0 0.00 0.00 0.00 78 1008.0
20260509100516 11 0.0 0.0 0.00 0.00 0.00 82 1007.6
20260509095516 11 0.0 1.6 0.00 0.00 0.00 82 1007.4
20260509094515 11 0.0 0.0 0.00 0.00 0.00 82 1007.4
20260509093515 11 0.0 0.0 0.00 0.00 0.00 81 1007.3
20260509093017 11 0.0 0.0 0.00 0.00 0.00 80 1007.3
20260509092017 11 0.0 0.0 0.00 0.00 0.00 79 1007.4
20260509091037 11 0.0 0.0 0.00 0.00 0.00 80 1007.5
20260509090017 11 0.0 0.0 0.00 0.00 0.00 79 1007.4
20260509085017 11 0.0 0.0 0.00 0.00 0.00 79 1007.4
20260509084017 11 0.0 0.0 0.00 0.00 0.00 79 1007.5
20260509083017 11 0.0 0.0 0.00 0.00 0.00 77 1007.6
20260509082017 11 0.0 0.0 0.00 0.00 0.00 76 1007.8
20260509081017 11 0.0 1.6 0.00 0.00 0.00 76 1007.7
20260509080540 11 0.0 3.2 0.00 0.00 0.00 76 1007.8
20260509080016 11 0.0 0.0 0.00 0.00 0.00 76 1007.8
20260509075016 11 0.0 1.6 0.00 0.00 0.00 78 1007.7
20260509074016 11 0.0 0.0 0.00 0.00 0.00 79 1007.6
20260509073016 11 0.0 0.0 0.00 0.00 0.00 78 1007.6
20260509072036 11 0.0 0.0 0.00 0.00 0.00 76 1007.7
20260509071016 11 0.0 0.0 0.00 0.00 0.00 76 1007.8
20260509070016 11 0.0 0.0 0.00 0.00 0.00 74 1007.9
20260509065036 11 0.0 0.0 0.00 0.00 0.00 73 1008.0
20260509064016 11 0.0 3.2 0.00 0.00 0.00 73 1008.0
20260509063016 11 0.0 4.8 0.00 0.00 0.00 75 1008.0
20260509062016 11 0.0 0.0 0.00 0.00 0.00 75 1007.9
20260509061016 11 0.0 0.0 0.00 0.00 0.00 75 1008.0
20260509060016 11 0.0 0.0 0.00 0.00 0.00 74 1008.0
20260509055016 12 0.0 0.0 0.00 0.00 0.00 72 1008.3
20260509054015 12 0.0 0.0 0.00 0.00 0.00 72 1008.3
20260509053016 12 0.0 0.0 0.00 0.00 0.00 70 1008.3
20260509052016 12 0.0 1.6 0.00 0.00 0.00 70 1008.3
20260509051015 12 0.0 0.0 0.00 0.00 0.00 68 1008.3
20260509050016 12 0.0 0.0 0.00 0.00 0.00 68 1008.3
20260509045015 12 0.0 0.0 0.00 0.00 0.00 67 1008.1
20260509044035 12 0.0 0.0 0.00 0.00 0.00 67 1008.3
20260509043035 12 0.0 0.0 0.00 0.00 0.00 67 1008.2
20260509042015 12 0.0 0.0 0.00 0.00 0.00 68 1008.4
20260509041015 12 0.0 0.0 0.00 0.00 0.00 67 1008.7
20260509040035 12 0.0 0.0 0.00 0.00 0.00 65 1008.8
20260509035036 12 0.0 3.2 0.00 0.00 0.00 63 1008.8
20260509034016 13 0.0 0.0 0.00 0.00 0.00 63 1008.8
20260509033016 13 0.0 0.0 0.00 0.00 0.00 61 1008.8
20260509032016 13 0.0 0.0 0.00 0.00 0.00 57 1008.8
20260509031016 13 0.0 1.6 0.00 0.00 0.00 55 1008.9
20260509030016 14 270 3.2 11.3 0.00 0.00 0.00 54 1008.9
20260509025016 14 0.0 3.2 0.00 0.00 0.00 53 1008.8
20260509024016 13 270 3.2 9.7 0.00 0.00 0.00 54 1008.9
20260509023016 13 0.0 0.0 0.00 0.00 0.00 62 1008.8
20260509022016 13 0.0 0.0 0.00 0.00 0.00 59 1009.0
20260509021036 13 0.0 0.0 0.00 0.00 0.00 62 1009.0
20260509020016 13 0.0 0.0 0.00 0.00 0.00 59 1008.9
20260509015016 13 0.0 0.0 0.00 0.00 0.00 61 1009.0
20260509014016 13 0.0 0.0 0.00 0.00 0.00 58 1008.9
20260509013016 13 0.0 0.0 0.00 0.00 0.00 59 1008.9
20260509012036 13 0.0 0.0 0.00 0.00 0.00 62 1008.8
20260509011015 13 0.0 0.0 0.00 0.00 0.00 64 1008.8
20260509010015 13 0.0 0.0 0.00 0.00 0.00 62 1008.7
20260509005016 13 0.0 0.0 0.00 0.00 0.00 61 1008.6
20260509004015 13 0.0 0.0 0.00 0.00 0.00 57 1008.7
20260509003015 13 0.0 0.0 0.00 0.00 0.00 58 1008.6
20260509002035 14 0.0 0.0 0.00 0.00 0.00 55 1008.4
20260509001035 15 0.0 0.0 0.00 0.00 0.00 52 1008.6
20260509000517 15 0.0 1.6 0.00 0.00 0.00 52 1008.6
20260508235517 16 0.0 0.0 0.00 0.00 0.00 47 1008.4
20260508234517 17 0.0 0.0 0.00 0.00 0.00 43 1008.5
20260508233517 17 0.0 1.6 0.00 0.00 0.00 37 1008.1
20260508232517 18 0.0 0.0 0.00 0.00 0.00 36 1008.2
20260508231517 18 0.0 1.6 0.00 0.00 0.00 37 1008.2
20260508230517 18 0.0 3.2 0.00 0.00 0.00 35 1008.3
20260508225517 18 270 1.6 6.4 0.00 0.00 0.00 34 1008.3
20260508224517 18 0.0 4.8 0.00 0.00 0.00 34 1008.3
20260508223517 18 270 1.6 4.8 0.00 0.00 0.00 34 1008.3
20260508222537 18 270 3.2 9.7 0.00 0.00 0.00 33 1008.4
20260508221517 18 270 4.8 16.1 0.00 0.00 0.00 33 1008.4
20260508220517 18 270 3.2 9.7 0.00 0.00 0.00 34 1008.5
20260508215520 18 270 1.6 9.7 0.00 0.00 0.00 32 1008.4
20260508214517 18 270 3.2 8.0 0.00 0.00 0.00 34 1008.4
20260508213517 18 225 4.8 20.9 0.00 0.00 0.00 32 1008.5
20260508212517 18 248 4.8 16.1 0.00 0.00 0.00 32 1008.4
20260508211517 18 270 3.2 12.9 0.00 0.00 0.00 33 1008.4
20260508210517 18 270 4.8 9.7 0.00 0.00 0.00 31 1008.4
20260508205537 18 270 3.2 16.1 0.00 0.00 0.00 32 1008.4
20260508204517 18 270 3.2 11.3 0.00 0.00 0.00 32 1008.4
20260508203537 18 270 4.8 11.3 0.00 0.00 0.00 31 1008.7
20260508202516 18 270 3.2 11.3 0.00 0.00 0.00 29 1008.7
20260508201516 18 270 3.2 11.3 0.00 0.00 0.00 30 1008.8
20260508200537 18 270 6.4 22.5 0.00 0.00 0.00 30 1008.7
20260508195516 19 270 4.8 17.7 0.00 0.00 0.00 28 1008.8
20260508194516 20 270 3.2 11.3 0.00 0.00 0.00 29 1008.8
20260508193516 20 293 4.8 19.3 0.00 0.00 0.00 27 1009.0
20260508192517 19 225 3.2 11.3 0.00 0.00 0.00 29 1009.1
20260508191516 18 248 3.2 9.7 0.00 0.00 0.00 30 1009.1
20260508190516 18 270 3.2 14.5 0.00 0.00 0.00 28 1009.2